Regional Weather Roundup
Issued by NWS State College, PA

Home | Current Version | Previous Version | Text Only | Print | Product List | Glossary Off
Versions: 1 2 3 4 5 6 7 8 9 10 11 12 13 14 15 16 17 18 19 20 21 22 23 24 25 26 27 28 29 30 31 32 33 34 35 36 37 38 39 40 41 42 43 44 45 46 47 48 49 50

000
ASUS41 KCTP 260810
RWRCTP

REGIONAL WEATHER ROUNDUP
NATIONAL WEATHER SERVICE STATE COLLEGE PA
400 AM EDT THU MAY 26 2016

Note: "fair" indicates few or no clouds below 12,000 feet with no
significant weather and/or obstructions to visibility.

* = STATION THAT DOES NOT REPORT PRECIPITATION /E.G. RAIN...SNOW...ETC/
    THUNDER OR FOG.

PAZ002>004-007>009-013>016-020>023-029>032-260900-
WESTERN PENNSYLVANIA

CITY           SKY/WX    TMP DP  RH WIND       PRES   REMARKS
ERIE           CLOUDY    69  56  62 S10       30.05S
MEADVILLE      CLOUDY    66  54  65 VRB3      30.08F
FRANKLIN*      CLOUDY    61  52  72 SE3       30.12S
NEW CASTLE     CLOUDY    66  58  75 VRB3      30.09S
BEAVER COUNTY  NOT AVBL
BUTLER*        CLOUDY   N/A N/A N/A CALM      30.12F
PITTSBURGH INT CLOUDY    68  57  68 SE3       30.09S
PITTSBURGH     CLOUDY    67  54  63 SE7       30.10S HAZE
INDIANA*       CLOUDY    63  55  77 CALM      30.15F
LATROBE        CLOUDY    63  59  88 CALM      30.12S
WASHINGTON CO* PTCLDY    61  55  82 CALM      30.11S
$$

PAZ004>006-010>012-017>019-024>028-033>037-041-042-045-046-049>053-260900-
CENTRAL PENNSYLVANIA

CITY           SKY/WX    TMP DP  RH WIND       PRES   REMARKS
BRADFORD       CLOUDY    55  50  83 CALM      30.14S
DUBOIS         CLOUDY    61  50  67 E3        30.13S
CLEARFIELD     CLOUDY    58  50  75 N3        30.14S
JOHNSTOWN      PTCLDY    66  46  48 S3        30.15F
ALTOONA        CLOUDY    62  55  77 CALM      30.14S
STATE COLLEGE  CLOUDY    61  51  69 CALM      30.13R
WILLIAMSPORT   PTCLDY    57  52  83 CALM      30.10R
SELINSGROVE    CLOUDY    54  52  93 CALM      30.11R
FT INDIANTOWN  CLOUDY    56  56 100 NE2       30.10S
CAPITAL CITY   PTCLDY    61  54  77 CALM      30.10R
HARRISBURG     MOCLDY    61  55  81 CALM      30.09S
YORK           PTCLDY    55  52  89 CALM      30.11R
$$

PAZ038>040-043-044-047-048-054-055-060>062-067>071-260900-
EASTERN PENNSYLVANIA

CITY           SKY/WX    TMP DP  RH WIND       PRES   REMARKS
SCRANTON       PTCLDY    58  52  80 SE3       30.11R
MOUNT POCONO   CLEAR     53  47  79 NW6       30.14S
ALLENTOWN      CLOUDY    61  53  75 CALM      30.10R
QUAKERTOWN*    CLOUDY    57  54  88 CALM      30.11S
READING        CLOUDY    61  54  77 CALM      30.09S
LANCASTER      CLOUDY    58  54  86 CALM      30.10S
COATESVILLE    CLOUDY    64  50  59 W5        30.13S
POTTSTOWN      CLOUDY    57  53  86 CALM      30.12R
BLUE BELL      PTCLDY    55  54  94 CALM      30.10S
DOYLESTOWN     CLEAR     62  50  64 S3        30.09S
WILLOW GROVE   NOT AVBL
NORTH PHILA    PTCLDY    66  56  70 SW3       30.11R
PHILADELPHIA   PTCLDY    66  55  67 SW6       30.11S
$$




USA.gov is the U.S. government's official web portal to all federal, state and local government web resources and services.